Weather in Plodopitomnik

Russia / Amur Oblast     50°18′23″N   127°29′22″E
temp.,
°C
wind,
m/s
gust,
m/s
humid.,
%
clouds,
%
prec.,
mm/h
press.,
hPa
HPBL,
m
11 may, tue
tue1100:00+7s2387100 0.0 101346
03:00+6s229099 0.0 101434
06:00+6s24885 0.0 1014113
09:00+12sse455656 0.0 1014595
12:00+17sse5534100 0.0 10131504
15:00+18sse6632100 0.0 10112138
18:00+17se6840100 0.0 10101432
21:00+13se81557100 0.0 1010583
12 may, wed
wed1200:00+10se81567100 0.0 1008496
03:00+9se81672100 0.0 1006621
06:00+8ese101981100 1.0 1002754
09:00+8se111886100 4.8 10001105
12:00+15se111660100 0.3 9971869
15:00+16sse81344100 0.9 9952446
18:00+13se61057100 0.6 9951214
21:00+10sse1278100 1.3 99781
13 may, thu
thu1300:00+9s2583100 0.9 997288
03:00+9wsw2385100 1.0 998120
06:00+9wnw378541 0.1 1000291
09:00+10wnw5880100 0.2 1002623
12:00+14wnw685787 0.3 10031531
15:00+17nw5947100 0.7 10042156
18:00+16n45485 0.0 1005744
21:00+10ene3580100 0.0 100693
14 may, fri
fri1400:00+8e2289100 0.0 100731
03:00+7ese389190 0.0 1005169
06:00+8se41086100 0.0 1003253
09:00+13s4957100 0.1 1001420
12:00+10w71279100 1.1 1002723
15:00+12sw3657100 5.8 1001754
18:00+15ssw48445 0.0 9991486
21:00+10ssw34645 0.0 99954
15 may, sat
sat1500:00+8wsw411670 0.0 1000213
03:00+7sw4106814 0.0 999227
06:00+9wsw51065100 0.0 998535
09:00+8wnw797398 0.3 10001152
12:00+10nw81168100 0.3 10011525
15:00+9nw81172100 0.7 10031180
18:00+11nnw6116130 0.0 10031425
21:00+8wnw597920 0.3 1006322